Waarnemingen

Advertentie
Mijn weer
Falsterbo A, Zweden (2615): temperatuur & dauwpunt: 18.07.2019 00:00:00 - 24.07.2019 00:00:00 (CEST)Falsterbo A, Zweden (2615): windsnelheid & windstoten: 18.07.2019 00:00:00 - 24.07.2019 00:00:00 (CEST)Falsterbo A, Zweden (2615): windrichting: 18.07.2019 00:00:00 - 24.07.2019 00:00:00 (CEST)Falsterbo A, Zweden (2615): luchtdruk: 18.07.2019 00:00:00 - 24.07.2019 00:00:00 (CEST)Falsterbo A, Zweden (2615): zicht: 18.07.2019 00:00:00 - 24.07.2019 00:00:00 (CEST)Falsterbo A, Zweden (2615): neerslag: 18.07.2019 00:00:00 - 24.07.2019 00:00:00 (CEST)
Datum & Tijd tt [°C] td [°C] ff [km/u] ff [kn] fx [km/u] fx [kn] dd ppp [hPa] vv [km] rr [mm]
24.07.2019 00:00:00 18,9 18,3 6 4 8 4 W 1019,8 10 0,0
23.07.2019 23:00:00 19,5 18,5 6 3 7 4 WNW 1019,7 15 0,0
23.07.2019 22:00:00 19,4 17,0 3 2 13 7 NO 1019,5 23 0,0
23.07.2019 21:00:00 21,5 17,7 6 4 18 10 NNO 1019,2 35 0,0
23.07.2019 20:00:00 22,7 17,4 11 6 21 11 NNO 1019,3 33 0,0
23.07.2019 19:00:00 23,8 17,3 18 10 23 13 N 1019,4 38 0,0
23.07.2019 18:00:00 23,3 17,7 15 8 22 12 N 1019,5 27 0,0
23.07.2019 17:00:00 24,7 17,7 16 9 21 12 N 1019,3 34 0,0
23.07.2019 16:00:00 24,5 17,7 11 6 21 11 NW 1019,3 32 0,0
23.07.2019 15:00:00 24,7 17,9 14 8 18 10 W 1019,4 30 0,0
23.07.2019 14:00:00 24,8 17,0 10 5 17 9 W 1019,6 28 0,0
23.07.2019 13:00:00 24,5 18,2 12 7 16 8 ZW 1019,7 22 0,0
23.07.2019 12:00:00 23,2 17,6 10 5 14 8 W 1019,8 20 0,0
23.07.2019 11:00:00 21,0 17,4 7 4 13 7 NW 1019,9 20 0,0
23.07.2019 10:00:00 20,0 18,0 12 6 26 14 W 1019,9 17 0,0
23.07.2019 09:00:00 18,0 17,4 21 11 25 14 W 1019,7 10 0,0
23.07.2019 08:00:00 17,8 17,3 19 11 26 14 W 1019,2 11 0,0
23.07.2019 07:00:00 17,7 17,4 22 12 31 17 WNW 1019,0 11 0,0
23.07.2019 06:00:00 17,7 17,5 26 14 35 19 W 1018,7 10 0,0
23.07.2019 05:00:00 17,7 17,5 29 15 34 19 W 1018,5 9 0,0
23.07.2019 04:00:00 17,8 17,6 23 13 28 15 W 1018,5 8 0,0
23.07.2019 03:00:00 17,7 17,5 19 10 24 13 W 1018,7 8 0,0
23.07.2019 02:00:00 17,5 17,3 16 9 22 12 W 1018,8 7 0,0
23.07.2019 01:00:00 17,2 17,0 19 10 28 15 WZW 1019,0 3,8 0,2
23.07.2019 00:00:00 16,4 16,2 23 12 31 17 ZW 1019,0 2,2 0,5
22.07.2019 23:00:00 16,0 15,8 23 12 32 17 ZZW 1019,1 2,8 0,7
22.07.2019 22:00:00 15,1 14,9 23 12 30 16 ZZW 1019,5 4,6 0,2
22.07.2019 21:00:00 15,1 14,9 23 13 31 17 ZZW 1019,7 7 0,2
22.07.2019 20:00:00 14,8 14,5 21 12 27 15 ZZW 1019,8 10 0,7
22.07.2019 19:00:00 15,4 14,6 22 12 29 16 ZW 1020,3 14 0,9
22.07.2019 18:00:00 15,8 14,0 23 12 38 21 WZW 1020,9 11 0,7
22.07.2019 17:00:00 16,9 12,6 32 17 40 22 WZW 1020,7 32 0,1
22.07.2019 16:00:00 18,6 13,0 34 18 40 22 WZW 1020,5 44 0,0
22.07.2019 15:00:00 18,6 14,1 28 15 34 18 WZW 1020,7 47 0,0
22.07.2019 14:00:00 19,5 14,5 30 16 36 19 WZW 1020,8 35 0,0
22.07.2019 13:00:00 19,1 14,1 22 12 26 14 WZW 1021,1 37 0,0
22.07.2019 12:00:00 19,0 14,3 20 11 27 15 WZW 1021,2 40 0,0
22.07.2019 11:00:00 18,5 13,8 22 12 27 15 WZW 1021,2 45 0,0
22.07.2019 10:00:00 18,2 12,9 18 10 22 12 WZW 1020,9 42 0,0
22.07.2019 09:00:00 17,5 12,4 15 8 22 12 W 1020,7 37 0,0
22.07.2019 08:00:00 16,3 13,0 18 10 26 14 W 1020,4 49 0,0
22.07.2019 07:00:00 15,8 13,3 22 12 29 16 WNW 1020,4 43 0,0
22.07.2019 06:00:00 15,5 13,7 26 14 35 19 WNW 1020,3 37 0,0
22.07.2019 05:00:00 15,4 14,1 29 16 38 20 WNW 1020,5 22 0,0
22.07.2019 04:00:00 15,5 14,2 32 18 39 21 WNW 1020,4 24 0,0
22.07.2019 03:00:00 15,5 13,9 32 17 41 22 WNW 1020,3 23 0,0
22.07.2019 02:00:00 15,7 13,9 34 19 40 22 W 1020,0 27 0,0
22.07.2019 01:00:00 16,0 13,8 27 15 35 19 W 1020,0 28 0,0
22.07.2019 00:00:00 16,5 13,2 23 13 35 19 W 1020,1 36 0,0
21.07.2019 23:00:00 17,2 13,7 27 15 33 18 W 1019,7 40 0,0
21.07.2019 22:00:00 17,7 13,4 24 13 46 25 WNW 1019,1 38 0,0
21.07.2019 21:00:00 18,2 14,1 34 18 41 22 WNW 1018,3 44 0,0
21.07.2019 20:00:00 19,2 14,9 28 15 36 20 W 1017,5 48 0,0
21.07.2019 19:00:00 19,8 15,0 29 16 40 21 W 1017,0 50 0,0
21.07.2019 18:00:00 19,9 15,3 31 17 41 22 W 1016,4 39 0,0
21.07.2019 17:00:00 20,1 15,1 35 19 44 24 W 1016,2 40 0,0
21.07.2019 16:00:00 20,1 15,5 34 19 49 26 W 1015,9 39 0,0
21.07.2019 15:00:00 20,4 16,6 30 16 42 23 WZW 1015,4 33 0,1
21.07.2019 14:00:00 21,4 16,4 32 17 44 24 WZW 1014,9 31 0,0
21.07.2019 13:00:00 21,4 16,1 25 14 32 18 ZW 1014,4 30 0,0
21.07.2019 12:00:00 19,9 16,5 20 11 29 16 ZW 1014,2 21 0,0
21.07.2019 11:00:00 19,9 17,1 20 11 27 14 ZW 1013,9 21 0,0
21.07.2019 10:00:00 18,6 17,4 23 12 28 15 WZW 1013,2 22 0,0
21.07.2019 09:00:00 18,0 16,5 16 9 28 15 ZW 1012,6 28 0,0
21.07.2019 08:00:00 18,6 16,9 16 9 22 12 ZZW 1012,4 39 0,0
21.07.2019 07:00:00 18,2 17,9 11 6 21 11 ZZW 1012,4 30 0,0
21.07.2019 06:00:00 17,2 16,9 16 9 21 11 ZZW 1012,1 31 0,0
21.07.2019 05:00:00 17,1 16,8 - - 21 12 - 1011,9 23 0,3
21.07.2019 04:00:00 17,5 16,7 16 9 25 14 Z 1011,8 41 0,0
21.07.2019 03:00:00 17,5 17,0 18 10 24 13 ZZW 1011,9 33 0,0
21.07.2019 02:00:00 17,5 17,0 16 9 28 15 Z 1011,8 15 0,0
21.07.2019 01:00:00 17,5 17,0 24 13 33 18 ZZW 1012,1 18 0,0
21.07.2019 00:00:00 17,6 17,0 21 11 41 22 Z 1012,1 33 0,0
20.07.2019 23:00:00 18,3 16,8 30 16 37 20 Z 1011,9 43 0,0
20.07.2019 22:00:00 19,8 16,2 30 16 63 34 ZO 1011,0 21 0,0
20.07.2019 21:00:00 19,2 16,6 38 20 49 27 OZO 1010,9 41 0,0
20.07.2019 20:00:00 19,6 15,7 34 19 42 23 OZO 1011,3 48 0,0
20.07.2019 19:00:00 20,0 16,4 31 17 39 21 OZO 1012,1 41 0,0
20.07.2019 18:00:00 20,7 16,1 30 16 39 21 OZO 1012,3 33 0,0
20.07.2019 17:00:00 21,2 16,2 25 14 32 17 OZO 1013,1 33 0,0
20.07.2019 16:00:00 20,9 16,9 25 13 32 17 OZO 1013,7 25 0,0
20.07.2019 15:00:00 21,1 16,5 23 13 29 15 OZO 1014,2 25 0,0
20.07.2019 14:00:00 22,1 16,1 19 11 24 13 ZO 1014,4 32 0,0
20.07.2019 13:00:00 22,5 16,3 14 7 17 9 ZO 1014,6 32 0,0
20.07.2019 12:00:00 22,2 16,7 13 7 16 9 ZZO 1014,7 29 0,0
20.07.2019 11:00:00 19,9 16,9 10 5 14 8 ZZO 1014,9 22 0,0
20.07.2019 10:00:00 19,1 17,1 10 5 13 7 ZZO 1014,6 13 0,0
20.07.2019 09:00:00 19,0 17,1 9 5 11 6 OZO 1014,6 24 0,0
20.07.2019 08:00:00 18,7 18,5 9 5 12 7 OZO 1014,3 8 0,0
20.07.2019 07:00:00 17,6 17,4 2 1 5 3 W 1014,3 2,5 0,0
20.07.2019 06:00:00 16,1 15,9 3 2 8 4 NNO 1014,1 1,1 0,0
20.07.2019 05:00:00 17,1 16,9 8 4 9 5 NW 1014,2 2,7 0,0
20.07.2019 04:00:00 16,6 16,4 4 2 10 5 NNW 1014,2 2,2 0,0
20.07.2019 03:00:00 17,1 16,8 6 3 10 5 W 1014,1 4,0 0,0
20.07.2019 02:00:00 17,6 17,3 10 5 13 7 W 1014,0 8 0,0
20.07.2019 01:00:00 17,3 16,8 7 4 14 8 WNW 1013,8 8 0,0
20.07.2019 00:00:00 17,9 17,4 12 6 19 10 W 1013,8 15 0,0
19.07.2019 23:00:00 17,5 16,9 7 4 11 6 WZW 1013,5 12 0,0
19.07.2019 22:00:00 18,4 17,2 11 6 20 11 WNW 1013,2 19 0,0
19.07.2019 21:00:00 18,8 16,6 15 8 19 10 ZZW 1012,8 25 0,0
19.07.2019 20:00:00 20,3 15,9 13 7 20 11 ZZO 1012,5 34 0,0
19.07.2019 19:00:00 20,5 16,1 16 9 21 12 Z 1012,3 50 0,0
19.07.2019 18:00:00 21,8 16,1 15 8 - - ZO 1012,5 42 0,0
19.07.2019 17:00:00 22,5 16,3 13 7 20 11 ZZO 1012,6 42 0,0
19.07.2019 16:00:00 22,3 16,1 16 9 23 12 ZO 1012,6 15 0,0
19.07.2019 15:00:00 22,5 16,1 17 9 27 15 ZO 1012,5 13 0,0
19.07.2019 14:00:00 21,9 15,7 21 11 - - ZO 1012,4 30 0,0
19.07.2019 13:00:00 21,0 15,8 21 11 28 15 ZO 1012,2 40 0,0
19.07.2019 12:00:00 20,4 16,0 22 12 29 16 OZO 1012,0 11 0,0
19.07.2019 11:00:00 19,8 15,9 23 12 27 15 ZO 1011,9 3,7 0,0
19.07.2019 10:00:00 20,1 15,7 22 12 31 17 ZO 1011,8 22 0,0
19.07.2019 09:00:00 20,2 16,6 23 13 31 17 OZO 1011,6 43 0,0
19.07.2019 08:00:00 19,3 16,1 22 12 29 15 OZO 1011,5 49 0,0
19.07.2019 07:00:00 18,6 16,4 20 11 27 15 OZO 1011,5 44 0,0
19.07.2019 06:00:00 17,9 15,9 20 11 25 14 ZO 1011,6 50 0,0
19.07.2019 05:00:00 17,7 15,7 19 10 24 13 ZO 1011,7 9 0,0
19.07.2019 04:00:00 17,9 15,5 18 10 25 13 ZO 1011,7 50 0,0
19.07.2019 03:00:00 18,0 15,4 19 10 25 14 ZO 1011,9 50 0,0
19.07.2019 02:00:00 18,0 15,3 18 10 24 13 ZO 1012,2 50 0,0
19.07.2019 01:00:00 18,0 15,8 17 9 21 12 OZO 1012,3 50 0,0
19.07.2019 00:00:00 17,5 15,3 13 7 18 10 ZO 1012,4 50 0,0
18.07.2019 23:00:00 17,6 15,6 15 8 19 11 ZO 1012,3 50 0,0
18.07.2019 22:00:00 18,0 15,6 15 8 21 11 ZO 1012,4 37 0,0
18.07.2019 21:00:00 18,4 15,5 15 8 21 12 ZZO 1012,3 40 0,0
18.07.2019 20:00:00 18,9 14,2 18 10 22 12 ZZO 1012,3 50 0,0
18.07.2019 19:00:00 20,6 14,0 15 8 20 11 ZZO 1012,5 48 0,0
18.07.2019 18:00:00 22,5 12,7 15 8 19 10 ZZO 1012,5 47 0,0
18.07.2019 17:00:00 22,8 11,8 14 8 18 10 ZZO 1012,8 46 0,0
18.07.2019 16:00:00 23,6 12,9 14 8 19 10 ZZO 1013,2 42 0,0
18.07.2019 15:00:00 22,8 13,0 15 8 18 10 Z 1013,3 37 0,0
18.07.2019 14:00:00 22,9 14,7 14 8 19 10 Z 1013,5 40 0,0
18.07.2019 13:00:00 23,2 12,9 14 8 18 10 ZZW 1013,5 40 0,0
18.07.2019 12:00:00 22,3 14,2 10 5 14 8 ZZO 1013,5 39 0,0
18.07.2019 11:00:00 21,0 14,6 9 5 13 7 Z 1013,4 45 0,0
18.07.2019 10:00:00 19,9 14,7 7 4 10 6 WZW 1013,4 36 0,0
18.07.2019 09:00:00 18,7 15,9 8 4 12 6 ZW 1013,3 47 0,0
18.07.2019 08:00:00 17,0 16,0 9 5 12 6 Z 1013,1 35 0,0
18.07.2019 07:00:00 15,7 15,5 5 3 7 4 OZO 1013,1 27 0,0
18.07.2019 06:00:00 14,2 14,0 5 3 - - O 1013,1 18 0,0
18.07.2019 05:00:00 14,2 13,9 6 4 9 5 NNO 1013,1 14 0,0
18.07.2019 04:00:00 14,6 14,1 8 5 11 6 NW 1013,1 28 0,0
18.07.2019 03:00:00 14,9 14,6 5 3 10 6 N 1013,2 26 0,0
18.07.2019 02:00:00 14,5 13,9 4 2 5 3 NW 1013,5 21 0,0
18.07.2019 01:00:00 14,2 13,2 0 0 4 2 N 1013,7 28 0,0
18.07.2019 00:00:00 15,1 13,1 3 2 8 5 N 1013,6 50 0,0

tt = temperatuur
td = dauwpunt
ff = windsnelheid
fx = windstoten
dd = windrichting
ppp = luchtdruk
vv = zicht
rr = neerslag

Weerstations in de omgeving